Regional Weather Roundup
Issued by NWS

Home | Current Version | Previous Version | Graphics & Text | Print | Product List | Glossary On
Versions: 1 2 3 4 5 6 7 8 9 10 11 12 13 14 15 16 17 18 19 20 21 22 23 24 25 26 27 28 29 30 31 32 33 34 35 36 37 38 39 40 41 42 43 44 45 46 47 48 49 50
000
ASUS43 KMKX 162021
RWRWI

WISCONSIN REGIONAL WEATHER ROUNDUP
NATIONAL WEATHER SERVICE MILWAUKEE/SULLIVAN WI
300 PM CDT WED AUG 16 2017

NOTE: "FAIR" INDICATES FEW OR NO CLOUDS BELOW 12,000 FEET WITH NO
SIGNIFICANT WEATHER AND/OR OBSTRUCTIONS TO VISIBILITY.

WIZ001-002-006>008-014>016-023>028-162100-
NORTHWEST WISCONSIN

CITY           SKY/WX    TMP DP  RH WIND       PRES   REMARKS
SUPERIOR ARPT    N/A     61  61  98 NE14G20   29.93F
ASHLAND        CLOUDY    68  62  81 NE10      29.95F
HAYWARD        CLOUDY    74  61  63 E9        29.92F
SIREN          CLOUDY    75  64  68 SE7       29.88F
CUMBERLAND     CLOUDY    73  63  68 SE7       29.89F
RICE LAKE      CLOUDY    75  64  68 E8        29.90F
CHETEK         CLOUDY    76  66  71 MISG      29.89F
LADYSMITH      CLOUDY    77  63  61 E13       29.93F
EAU CLAIRE     CLOUDY    78  65  63 E13       29.86F HX  80
MENOMONIE      CLOUDY    78  67  69 E8        29.87F HX  80
NEW RICHMOND   CLOUDY    76  66  71 SE8       29.85F
OSCEOLA        CLOUDY    75  67  74 SE10      29.87F
$$

WIZ003>005-009-010-017-018-162100-
NORTH CENTRAL WISCONSIN

CITY           SKY/WX    TMP DP  RH WIND       PRES   REMARKS
MANITOWISH WTR CLOUDY    72  57  59 S9        29.98S
ARBOR VITAE    MOSUNNY   74  60  60 SE7       29.98S
WOODRUFF       MOSUNNY   74  60  60 SE7       29.98S
RHINELANDER    CLOUDY    74  59  59 E12       29.99F
EAGLE RIVER    SUNNY     73  54  52 SE7       29.99F
LAND O LAKES   CLOUDY    76  53  44 SE6       30.00F
PHILLIPS       CLOUDY    73  62  67 E8        29.94F
TOMAHAWK         N/A     75  59  58 E5        29.97F
MEDFORD        CLOUDY    74  62  66 SE10      29.94F
MERRILL        SUNNY     75  63  64 S9        29.97F
$$

WIZ029-030-035-036-043>047-162100-
CENTRAL WISCONSIN

CITY           SKY/WX    TMP DP  RH WIND       PRES   REMARKS
WAUSAU         MOSUNNY   76  62  62 SE12G18   29.94F
MOSINEE        MOSUNNY   75  64  69 E8        29.96F
MARSHFIELD     CLOUDY    79  62  56 SE12      29.93F HX  80
STEVENS POINT  SUNNY     76  61  60 SE13G18   29.95F
WAUPACA        SUNNY     82  60  48 E12       29.96F HX  82
WAUTOMA        PTSUNNY   81  64  56 E10       29.93F HX  82
WISC RAPIDS    CLOUDY    80  64  58 SE13      29.94F HX  82
CAMP DOUGLAS   PTSUNNY   81  66  61 E9        29.90F HX  83
$$

WIZ011>013-019>022-031-037>040-048>050-162100-
NORTHEAST WISCONSIN

CITY           SKY/WX    TMP DP  RH WIND       PRES   REMARKS
ANTIGO         MOSUNNY   73  58  59 SE7       29.99F
SHAWANO        SUNNY     78  61  56 E7        29.97F
OCONTO         SUNNY     73  61  65 E7        29.98F
STURGEON BAY   SUNNY     73  63  70 VRB7      30.00F
GREEN BAY      PTSUNNY   75  66  73 NE9       29.97F
MANITOWOC      SUNNY     73  64  73 SE9       29.99F
APPLETON       MOSUNNY   79  59  50 SE10      29.96F HX  80
CLINTONVILLE   PTSUNNY   77  61  57 SE12      29.96F
OSHKOSH        SUNNY     78  64  61 E9        29.95F HX  80
$$

WIZ032>034-041-042-053>061-162100-
SOUTHWEST WISCONSIN

CITY           SKY/WX    TMP DP  RH WIND       PRES   REMARKS
LA CROSSE      PTSUNNY   88  69  53 E9G21     29.84F HX  92
SPARTA         CLOUDY    82  66  58 SE14G20   29.88F HX  84
VIROQUA        CLOUDY    80  71  73 E10       29.88F HX  84
BOSCOBEL       PTSUNNY   86  70  58 VRB7      29.85F HX  90
PRAIRIE DU CHI PTSUNNY   83  67  57 SE10      29.82F HX  86
PLATTEVILLE    CLOUDY    83  74  72 SE14      29.86F HX  90
$$

WIZ056-057-062-063-064-067-068-162100-
SOUTH CENTRAL WISCONSIN

CITY           SKY/WX    TMP DP  RH WIND       PRES   REMARKS
REEDSBURG      MOSUNNY   83  68  60 SE9       29.90F HX  86
BARABOO/DELLS  MOSUNNY   82  64  54 E12       29.91F HX  83
LONE ROCK      CLOUDY    82  71  69 E13G20    29.87F HX  86
MINERAL POINT  PTSUNNY   84  72  65 SE12      29.88F HX  89
MADISON        PTSUNNY   82  69  64 SE14      29.90F HX  85
MIDDLETON      MOSUNNY   84  69  59 SE10      29.91F HX  87
WATERTOWN      SUNNY     83  69  62 E10G17    29.92F HX  87
MONROE         PTSUNNY   84  68  58 SE15G21   29.89F HX  87
JANESVILLE     PTSUNNY   86  70  58 SE14      29.90F HX  90
$$

WIZ051-052-058>065-066-070>072-162100-
SOUTHEAST WISCONSIN

CITY           SKY/WX    TMP DP  RH WIND       PRES   REMARKS
MILWAUKEE      MOSUNNY   78  66  66 E10       29.96F HX  80
WAUKESHA       MOSUNNY   79  63  57 E13       29.96F HX  80
MILWAUKEE/TIMM SUNNY     77  61  57 E7        29.97F
RACINE         SUNNY     78  67  68 E10       29.97F HX  80
KENOSHA        SUNNY     79  68  69 E12       29.95F HX  81
FOND DU LAC    PTSUNNY   81  64  56 E12       29.95F HX  82
SHEBOYGAN      SUNNY     75  65  70 E9        29.98F
WEST BEND      SUNNY     77  63  61 E8        29.97F
JUNEAU         SUNNY     79  67  64 E10       29.95F HX  81
$$

LSZ147-162-162100-
LAKE SUPERIOR

STATION/POSITION TIME  TEMP    WIND        PRES    WAVE
                       AIR SEA DIR/SP/G            HT/PER
                 (UTC) (F)     (DEG/KT/KT) (MB)    (FT/S)
W MID LAKE BUOY  1950   62 61   60/ 10/ 12 1014.7F   1/ 3
DEVILS ISLAND    2000   62      70/ 11/ 14 1014.6F
SAXON HARBOR     1930   67      50/ 10/ 12 1013.9F
$$

LMZ867-665-643>646-162100-
LAKE MICHIGAN

STATION/POSITION TIME  TEMP    WIND        PRES    WAVE
                       AIR SEA DIR/SP/G            HT/PER
                 (UTC) (F)     (DEG/KT/KT) (MB)    (FT/S)
S GREEN BAY BUOY 2000   69 72   50/ 12/ 14 1015.3
N MID LAKE BUOY  1950   67 69   50/  8/  8 1016.6F   1
NORTHPORT PIER   1940   68      90/  6/  9 1016.3F
KEWAUNEE LAKESHO 1954   71      70/  5/  7 1015.1F
SHEBOYGAN LAKESH 2000   68      90/  6/  7 1014.8F
PORT WASHINGTON  1940   73      70/  7/  9 1015.9F
ATWATER BUOY     1909   71 72   70/  8/ 10 1015.3F
MILWAUKEE LAKESH 2000   71      70/  8/  9   N/A
S MID LAKE BUOY  1950   73 73   50/  8/  8 1014.5F   1
KENOSHA   LAKESH 2000   72      70/  9/  9 1013.9
$$

TC  - TEMPERATURE IN CELSIUS
VSB - VISIBILITY IN STATUTE MILES
WCI - WIND CHILL INDEX
HX  - HEAT INDEX





USA.gov is the U.S. government's official web portal to all federal, state and local government web resources and services.